This demonstration page uses our WeatherBlox Daily Observations layout. Learn more.

38.89511, -77.03637

Hourly Observations for September 21, 2018

Temp ( °F °C ) Dew Point ( °F °C ) Humidity (%) Winds ( mph kmh ) Pressure ( in mb ) Visibility ( mi km ) Precip ( " mm )
12:52 am 00:52 Cloudy 72 22.2 65 18.3 79 79 SSE 9 15 30.22 1023 10 16.0934 0 0
1:52 am 01:52 Cloudy 72 22.2 65 18.3 79 79 S 9 15 30.22 1023 10 16.0934 0 0
2:04 am 02:04 Cloudy 72 22.2 65 18.3 79 79 S 9 15 30.21 1023 10 16.0934 0 0
2:52 am 02:52 Cloudy 72 22.2 66 18.9 82 82 S 8 13 30.22 1023 10 16.0934 0 0
3:52 am 03:52 Cloudy 72 22.2 65 18.3 79 79 S 8 13 30.21 1023 10 16.0934 0 0
4:52 am 04:52 Cloudy 72 22.2 65 18.3 79 79 S 9 15 30.22 1023 10 16.0934 0 0
5:26 am 05:26 Cloudy 71 21.7 66 18.9 84 84 S 7 11 30.21 1023 10 16.0934 0 0
5:52 am 05:52 Cloudy 71 21.7 66 18.9 84 84 S 7 11 30.23 1024 10 16.0934 0 0
6:01 am 06:01 Cloudy 71 21.7 66 18.9 84 84 S 7 11 30.24 1024 10 16.0934 0 0
6:28 am 06:28 Cloudy with Light Rain 71 21.7 66 18.9 84 84 SSE 7 11 30.24 1024 10 16.0934 0 0.0254
6:52 am 06:52 Cloudy 71 21.7 66 18.9 84 84 S 7 11 30.23 1024 10 16.0934 0 0.0254
7:09 am 07:09 Cloudy 71 21.7 66 18.9 84 84 SSE 6 9 30.24 1024 10 16.0934 0 0
7:52 am 07:52 Cloudy 71 21.7 66 18.9 84 84 SE 7 11 30.24 1024 10 16.0934 0 0.0254
8:10 am 08:10 Cloudy 71 21.7 66 18.9 84 84 SSE 6 9 30.24 1024 10 16.0934 0 0
8:52 am 08:52 Cloudy with Light Rain 71 21.7 66 18.9 84 84 S 9 15 30.24 1024 10 16.0934 0 0.0254
9:06 am 09:06 Cloudy with Light Rain 70 21.1 64 17.8 82 82 SSW 14 22 30.24 1024 7 11.26538 0 0.0254
9:14 am 09:14 Cloudy with Rain 69 20.6 64 17.8 84 84 SSW 10 17 30.24 1024 3 4.82802 0.01 0.254
9:26 am 09:26 Cloudy with Rain 68 20 64 17.8 87 87 SSW 9 15 30.24 1024 2 3.21868 0.04 1.016
9:30 am 09:30 Cloudy with Rain 68 20 64 17.8 87 87 SSW 7 11 30.24 1024 1.5 2.41401 0.06 1.524
9:45 am 09:45 Cloudy with Heavy Rain 68 20 65 18.3 90 90 SSW 8 13 30.24 1024 1 1.60934 0.15 3.81
9:52 am 09:52 Cloudy with Heavy Rain 68 20 65 18.3 90 90 SSW 6 9 30.23 1024 1 1.60934 0.2 5.08
9:59 am 09:59 Cloudy with Rain 68 20 66 18.9 93 93 S 8 13 30.24 1024 1.5 2.41401 0.04 1.016
10:09 am 10:09 Cloudy with Rain 68 20 65 18.3 90 90 S 13 20 30.24 1024 2.5 4.02335 0.06 1.524
10:16 am 10:16 Cloudy with Light Rain 68 20 65 18.3 90 90 S 10 17 30.24 1024 4 6.43736 0.07 1.778
10:26 am 10:26 Cloudy with Light Rain 69 20.6 66 18.9 90 90 S 10 17 30.24 1024 6 9.65604 0.08 2.032
10:43 am 10:43 Cloudy with Light Rain 69 20.6 66 18.9 90 90 S 10 17 30.24 1024 10 16.0934 0.08 2.032
10:52 am 10:52 Cloudy with Light Rain 69 20.6 65 18.3 87 87 S 13 20 30.22 1024 10 16.0934 0.08 2.032
11:29 am 11:29 Cloudy 71 21.7 65 18.3 81 81 S 14 22 30.21 1023 10 16.0934 0 0.0254
11:52 am 11:52 Cloudy 71 21.7 65 18.3 81 81 S 13 20 30.21 1023 10 16.0934 0 0.0254
12:30 pm 12:30 Cloudy 71 21.7 66 18.9 84 84 S 12 19 30.18 1022 10 16.0934 0 0
12:52 pm 12:52 Cloudy 72 22.2 67 19.4 84 84 S 9 15 30.18 1022 10 16.0934 0 0
1:52 pm 13:52 Cloudy 73 22.8 67 19.4 81 81 S 10 17 30.16 1021 10 16.0934 0 0
2:52 pm 14:52 Cloudy 74 23.3 67 19.4 79 79 S 8 13 30.12 1020 10 16.0934 0 0
3:52 pm 15:52 Cloudy 76 24.4 68 20 77 77 S 8 13 30.09 1019 10 16.0934 0 0
4:52 pm 16:52 Cloudy 78 25.6 69 20.6 74 74 S 9 15 30.07 1018 10 16.0934 0 0
5:52 pm 17:52 Cloudy 78 25.6 68 20 71 71 S 10 17 30.06 1018 10 16.0934 0 0
6:09 pm 18:09 Cloudy 77 25 69 20.6 77 77 S 12 19 30.06 1018 10 16.0934 0 0
6:52 pm 18:52 Partly Cloudy 75 23.9 68 20 79 79 S 10 17 30.04 1017 10 16.0934 0 0
7:52 pm 19:52 Mostly Clear 75 23.9 68 20 79 79 S 13 20 30.02 1017 10 16.0934 0 0
8:52 pm 20:52 Mostly Clear 75 23.9 69 20.6 82 82 S 10 17 30.04 1017 10 16.0934 0 0
9:52 pm 21:52 Mostly Clear 76 24.4 68 20 77 77 S 12 19 30.06 1018 10 16.0934 0 0
10:52 pm 22:52 Mostly Cloudy 75 23.9 69 20.6 82 82 S 12 19 30.06 1018 10 16.0934 0 0
11:52 pm 23:52 Mostly Cloudy 75 23.9 69 20.6 82 82 S 12 19 30.05 1018 10 16.0934 0 0

Powered by AerisWeather